[[{"header":{"parameterUnit":"m.s-1","parameterCategory":2,"la1":30.2991,"la2":30.254,"lo1":-89.0895,"lo2":-89.0444,"dy":0.0017,"dx":0.0017,"nx":28,"ny":28,"refTime":"2024-02-05T09:00:00:Z","depth":"0","parameterNumber":2,"parameterNumberName":"U-component_of_CURRENTS"},"data":[0,0,0,0,0,0,0,0,0,0,0,0,0,0,0,0,0,0,0,0,0,0,0,0,0,0,0,0,0,0,0,0,0,0,0,0,0,0,0,0,0,0,0,0,0,0,0,0,0,0,0,0,0,0,0,0,0,0,-0.2526,-0.2527,0,-0.2565,-0.2565,-0.2565,-0.2528,-0.2527,-0.2526,-0.2524,-0.2574,-0.2576,-0.2579,0,0,0,0,0,0,0,0,0,0,0,0,0,-0.2459,-0.246,-0.2526,-0.2527,-0.2527,-0.2565,-0.2565,-0.2565,-0.2529,-0.2527,-0.2525,-0.2524,-0.2573,-0.2576,-0.2579,0,0,0,0,0,0,0,0,0,0,0,0,0,-0.2491,-0.2461,-0.2526,-0.2514,-0.2514,-0.2565,-0.2565,-0.2566,-0.2529,-0.2527,-0.2525,-0.2523,-0.2572,-0.2576,-0.258,-0.2645,0,0,-0.2592,-0.2593,0,0,0,0,0,0,0,0,-0.2489,-0.2493,-0.2515,-0.2515,-0.2515,-0.2541,-0.256,-0.2593,-0.2529,-0.2522,-0.2524,-0.2522,-0.2566,-0.257,-0.258,-0.2647,-0.2649,-0.2592,-0.2594,-0.2596,-0.2597,0,0,0,0,0,0,0,-0.2487,-0.2492,-0.254,-0.2516,-0.2516,-0.252,-0.2522,-0.2566,-0.2554,-0.2522,-0.252,-0.2527,-0.2565,-0.2577,-0.2581,-0.265,-0.2592,-0.2595,-0.2598,-0.2599,-0.2805,-0.2808,0,0,0,0,0,0,-0.2485,-0.249,-0.2539,-0.2541,-0.2498,-0.2523,-0.2525,-0.2533,-0.2554,-0.2555,-0.2529,-0.2525,-0.2571,-0.2577,-0.2583,-0.2664,-0.2596,-0.26,-0.2602,-0.2802,-0.2806,-0.2809,0,0,0,0,0,0,-0.2484,-0.2489,-0.2537,-0.2517,-0.2523,-0.2526,-0.2536,-0.2535,-0.2536,-0.2558,-0.2559,-0.2528,-0.257,-0.2578,-0.263,-0.2665,-0.2601,-0.2605,-0.2798,-0.2803,-0.2807,-0.2825,0,0,0,0,0,0,-0.2482,-0.2489,-0.249,-0.2517,-0.2525,-0.2565,-0.2538,-0.2538,-0.2544,-0.254,-0.256,-0.2562,-0.2569,-0.2625,-0.2634,-0.267,-0.2608,-0.2794,-0.28,-0.2806,-0.282,-0.283,-0.2838,0,0,0,0,0,-0.2479,-0.249,-0.249,-0.2496,-0.2528,-0.2567,-0.2571,-0.2565,-0.2546,-0.2556,-0.2576,-0.2561,-0.2669,-0.263,-0.2641,-0.2678,-0.2791,-0.2799,-0.2805,-0.2817,-0.2828,-0.2837,0,0,0,0,0,0,-0.2457,-0.2488,-0.2489,-0.2506,-0.2534,-0.256,-0.2565,-0.2569,-0.2592,-0.2583,-0.2596,-0.2603,-0.2667,-0.2682,-0.2639,-0.2761,-0.2731,-0.274,-0.2736,-0.2747,-0.2755,-0.2714,-0.2611,0,0,0,0,0,-0.2457,-0.2469,-0.2506,-0.2517,-0.2531,-0.2549,-0.2561,-0.2565,-0.2591,-0.2597,-0.2615,-0.2652,-0.271,-0.273,-0.2777,-0.284,-0.2782,-0.2877,-0.2886,-0.2892,-0.2871,-0.2798,-0.2795,-0.2832,-0.2832,-0.2832,0,0,-0.245,-0.2468,-0.2474,-0.2513,-0.2527,-0.2565,-0.255,-0.2572,-0.2606,-0.2604,-0.2646,-0.2681,-0.2737,-0.2806,-0.2837,-0.2816,-0.286,-0.2901,-0.2906,-0.2881,-0.2805,-0.28,-0.2795,-0.2837,-0.2836,-0.2835,0,0,-0.2455,-0.2461,-0.2481,-0.251,-0.2542,-0.2565,-0.2573,-0.2607,-0.262,-0.2682,-0.2695,-0.2732,-0.2824,-0.2851,-0.2886,-0.2973,-0.291,-0.3016,-0.3017,-0.2948,-0.2941,-0.2935,-0.2868,-0.2856,-0.3015,-0.3015,-0.3015,0,-0.2446,-0.2474,-0.2493,-0.2527,-0.2549,-0.2568,-0.2604,-0.2638,-0.2684,-0.2701,-0.2698,-0.2804,-0.2839,-0.2914,-0.2951,-0.2984,-0.2935,-0.2965,-0.2949,-0.2942,-0.2935,-0.2868,-0.2853,-0.3017,-0.3017,-0.3016,-0.3016,0,-0.2476,-0.2499,-0.2511,-0.2561,-0.2596,-0.2622,-0.2677,-0.2706,-0.2726,-0.2753,-0.2816,-0.2857,-0.2906,-0.2948,-0.2981,-0.2988,-0.2967,-0.2962,-0.29,-0.293,-0.2861,-0.2845,-0.3019,-0.3019,-0.3018,-0.3018,0,0,-0.2446,-0.2519,-0.252,-0.2543,-0.2611,-0.2637,-0.2705,-0.2762,-0.278,-0.2829,-0.2843,-0.2952,-0.294,-0.2978,-0.3012,-0.2967,-0.2892,-0.295,-0.2946,-0.2843,-0.273,-0.265,-0.2625,-0.2873,-0.287,-0.2869,-0.2702,0,-0.2457,-0.2514,-0.2559,-0.2611,-0.2641,-0.2689,-0.2745,-0.2798,-0.2835,-0.2852,-0.2886,-0.2921,-0.2967,-0.2976,-0.2947,-0.2917,-0.2852,-0.2937,-0.2751,-0.2745,-0.2635,-0.2604,-0.2531,-0.237,-0.2687,-0.2684,-0.2682,0,-0.246,-0.2501,-0.2555,-0.262,-0.2637,-0.2679,-0.2737,-0.2791,-0.2838,-0.2859,-0.2885,-0.2903,-0.2905,-0.2901,-0.2821,-0.2873,-0.2797,-0.2749,-0.2741,-0.2638,-0.2635,-0.2394,-0.2329,-0.2321,-0.2658,-0.266,-0.2661,0,-0.2405,-0.2485,-0.2521,-0.2547,-0.2639,-0.2667,-0.2712,-0.2779,-0.2809,-0.2837,-0.2835,-0.2851,-0.283,-0.276,-0.2708,-0.2748,-0.256,-0.2595,-0.2442,-0.2436,-0.232,-0.2307,-0.2182,-0.2466,-0.2466,-0.2467,-0.2467,0,-0.2384,-0.2407,-0.2492,-0.2512,-0.2544,-0.2623,-0.2654,-0.2704,-0.2749,-0.2753,-0.2816,-0.2798,-0.2784,-0.2708,-0.2655,-0.2496,-0.251,-0.2409,-0.2372,-0.2331,-0.2322,-0.2269,-0.2317,-0.246,-0.2462,-0.2463,-0.2464,0,-0.2307,-0.237,-0.2406,-0.2495,-0.2517,-0.2533,-0.2609,-0.2622,-0.2686,-0.2681,-0.2681,-0.2722,-0.2628,-0.2587,-0.2448,-0.2404,-0.2226,-0.2199,-0.2158,-0.2119,-0.1991,-0.2045,-0.1874,-0.1814,-0.2005,-0.2002,-0.1999,0,-0.2271,-0.2282,-0.2361,-0.2373,-0.2409,-0.245,-0.2469,-0.2563,-0.258,-0.2624,-0.26,-0.2545,-0.2479,-0.2282,-0.2174,-0.2017,-0.2054,-0.1866,-0.1926,-0.1935,-0.1969,-0.2027,-0.1995,-0.179,-0.1786,-0.1782,-0.1779,0,-0.219,-0.2213,-0.2243,-0.2269,-0.2291,-0.2323,-0.2364,-0.2371,-0.2457,-0.2455,-0.2416,-0.2364,-0.2212,-0.2039,-0.1871,-0.1785,-0.1846,-0.1788,-0.1796,-0.1772,-0.1825,-0.1766,-0.1969,-0.1749,-0.1752,-0.1754,-0.1756,-0.1757,-0.21,-0.2092,-0.2123,-0.2135,-0.2164,-0.2173,-0.2139,-0.2189,-0.2183,-0.214,-0.2189,-0.2073,-0.1973,-0.1735,-0.1628,-0.1483,-0.1573,-0.1467,-0.1524,-0.1576,-0.1534,-0.1667,-0.1416,-0.1417,-0.1418,-0.1419,-0.142,0,-0.1973,-0.1977,-0.1986,-0.1991,-0.196,-0.203,-0.2037,-0.1972,-0.1898,-0.1905,-0.1836,-0.1749,-0.1586,-0.1504,-0.1362,-0.1271,-0.1256,-0.1251,-0.1335,-0.1306,-0.1394,-0.1403,-0.114,-0.114,-0.114,-0.114,-0.114,-0.114,-0.1903,-0.1861,-0.187,-0.178,-0.1775,-0.1678,-0.1645,-0.1578,-0.1554,-0.1441,-0.1405,-0.1416,-0.1398,-0.1466,-0.1322,-0.1232,-0.122,-0.1173,-0.1195,-0.1309,-0.1335,-0.136,-0.1377,-0.1113,-0.1113,-0.1059,-0.1059,-0.1059]},{"header":{"parameterUnit":"m.s-1","parameterCategory":2,"la1":30.2991,"la2":30.254,"lo1":-89.0895,"lo2":-89.0444,"dy":0.0017,"dx":0.0017,"nx":28,"ny":28,"refTime":"2024-02-05T09:00:00:Z","depth":"0","parameterNumber":3,"parameterNumberName":"V-component_of_CURRENTS"},"data":[0,0,0,0,0,0,0,0,0,0,0,0,0,0,0,0,0,0,0,0,0,0,0,0,0,0,0,0,0,0,0,0,0,0,0,0,0,0,0,0,0,0,0,0,0,0,0,0,0,0,0,0,0,0,0,0,0,0,-0.0538,-0.0537,0,-0.0448,-0.0447,-0.0446,-0.0379,-0.0379,-0.0379,-0.0378,-0.0207,-0.0203,-0.0199,0,0,0,0,0,0,0,0,0,0,0,0,0,-0.0583,-0.0582,-0.0538,-0.0537,-0.0536,-0.0448,-0.0447,-0.0445,-0.038,-0.0379,-0.0379,-0.0378,-0.0209,-0.0204,-0.0199,0,0,0,0,0,0,0,0,0,0,0,0,0,-0.0533,-0.0582,-0.0538,-0.0495,-0.049,-0.0448,-0.0447,-0.0445,-0.038,-0.0379,-0.0379,-0.0378,-0.021,-0.0204,-0.0198,-0.017,0,0,-0.0179,-0.0176,0,0,0,0,0,0,0,0,-0.0536,-0.0531,-0.0502,-0.0498,-0.0492,-0.0426,-0.04,-0.035,-0.038,-0.0419,-0.0378,-0.0378,-0.0275,-0.0263,-0.0245,-0.0162,-0.0154,-0.0178,-0.0174,-0.0172,-0.017,0,0,0,0,0,0,0,-0.054,-0.0534,-0.05,-0.0501,-0.0495,-0.0455,-0.0448,-0.039,-0.0348,-0.0416,-0.0411,-0.0405,-0.0271,-0.0252,-0.0241,-0.0152,-0.0178,-0.0173,-0.0169,-0.0166,0.0045,0.0047,0,0,0,0,0,0,-0.056,-0.0538,-0.0503,-0.0498,-0.0516,-0.0455,-0.0447,-0.0446,-0.035,-0.0336,-0.0406,-0.0402,-0.0263,-0.0248,-0.0234,-0.016,-0.0172,-0.0166,-0.0162,0.0043,0.0045,0.0047,0,0,0,0,0,0,-0.0561,-0.0558,-0.0507,-0.0517,-0.0508,-0.0456,-0.0455,-0.0445,-0.0426,-0.0344,-0.0328,-0.0398,-0.0262,-0.0243,-0.0186,-0.0154,-0.0163,-0.0157,0.0041,0.0044,0.0046,-0.0033,0,0,0,0,0,0,-0.0563,-0.0559,-0.0565,-0.0519,-0.0508,-0.049,-0.0455,-0.0444,-0.0424,-0.0419,-0.0332,-0.0315,-0.026,-0.0196,-0.018,-0.0145,-0.0152,0.0039,0.0042,0.0045,-0.0033,-0.0033,-0.0034,0,0,0,0,0,-0.0565,-0.0577,-0.0566,-0.0561,-0.0518,-0.049,-0.0481,-0.044,-0.0425,-0.042,-0.0361,-0.0318,-0.0161,-0.0191,-0.0172,-0.0135,0.0037,0.0041,0.0045,-0.0032,-0.0033,-0.0034,0,0,0,0,0,0,-0.0595,-0.057,-0.0557,-0.0559,-0.0532,-0.048,-0.0474,-0.0448,-0.0399,-0.0393,-0.0316,-0.0295,-0.0227,-0.017,-0.0204,-0.0058,-0.0046,-0.0038,-0.0111,-0.0111,-0.0111,-0.0127,-0.0147,0,0,0,0,0,-0.0607,-0.0612,-0.0577,-0.0579,-0.057,-0.0524,-0.0508,-0.0483,-0.0436,-0.0415,-0.0354,-0.0274,-0.0194,-0.015,-0.0081,-0.0015,0.0028,0.0032,0.0031,0.003,0.0034,0.0124,0.013,0.0061,0.0061,0.006,0,0,-0.0618,-0.0607,-0.0608,-0.0586,-0.0561,-0.0554,-0.0513,-0.0497,-0.048,-0.0402,-0.0361,-0.0286,-0.018,-0.0104,-0.0065,-0.0053,0.0068,0.0035,0.0033,0.0038,0.0128,0.0135,0.0141,0.0063,0.0063,0.0062,0,0,-0.0649,-0.0635,-0.0651,-0.0636,-0.0612,-0.058,-0.0581,-0.0535,-0.0503,-0.0463,-0.0385,-0.029,-0.0201,-0.0095,-0.0034,0.0009,0.0053,0.0033,0.0025,0.0111,0.0117,0.0122,0.0149,0.0158,0.0042,0.0042,0.0042,0,-0.0664,-0.0679,-0.065,-0.0662,-0.0652,-0.0599,-0.0608,-0.0567,-0.0506,-0.0467,-0.0462,-0.0271,-0.0184,-0.0048,-0.0029,0.001,0.0031,0.0008,0.0106,0.0113,0.012,0.0147,0.0158,0.0039,0.0039,0.004,0.004,0,-0.0709,-0.0717,-0.0725,-0.0722,-0.0707,-0.0705,-0.0654,-0.0624,-0.0583,-0.0526,-0.0411,-0.029,-0.0167,-0.0113,-0.0062,0.0056,0.0041,0.0079,0.0093,0.0121,0.0149,0.0161,0.0034,0.0035,0.0036,0.0037,0,0,-0.0746,-0.0756,-0.0758,-0.0769,-0.074,-0.0733,-0.07,-0.064,-0.0604,-0.0518,-0.0448,-0.0281,-0.0206,-0.0129,-0.0027,0.006,0.0125,0.0077,0.0083,0.0076,0.0255,0.0284,0.03,0.0158,0.0161,0.0163,0.0239,0,-0.0786,-0.0833,-0.0815,-0.0838,-0.0854,-0.0796,-0.0767,-0.0702,-0.0631,-0.0551,-0.0389,-0.0292,-0.0213,-0.0153,-0.0048,0.0089,0.0159,0.0097,0.0254,0.0259,0.026,0.0318,0.0366,0.0442,0.0252,0.0254,0.0255,0,-0.0833,-0.086,-0.0902,-0.0898,-0.0897,-0.0896,-0.0835,-0.08,-0.0664,-0.0604,-0.0466,-0.036,-0.0183,-0.0143,0.0096,0.0039,0.0136,0.0228,0.0234,0.0302,0.0313,0.0397,0.0472,0.0631,0.0275,0.0273,0.0272,0,-0.0886,-0.0912,-0.0949,-0.0953,-0.0941,-0.0936,-0.0915,-0.0815,-0.077,-0.0635,-0.0587,-0.0379,-0.0269,-0.0108,0.0095,0.0083,0.0321,0.0338,0.0451,0.0451,0.055,0.0556,0.0784,0.0486,0.0486,0.0486,0.0485,0,-0.0939,-0.0965,-0.0982,-0.1009,-0.1035,-0.1,-0.0987,-0.0933,-0.083,-0.076,-0.0617,-0.0511,-0.0259,-0.0087,0.0073,0.0306,0.0312,0.0461,0.0495,0.0521,0.0523,0.0712,0.0763,0.0488,0.0488,0.0487,0.0487,0,-0.0991,-0.1001,-0.1049,-0.1063,-0.1069,-0.109,-0.1062,-0.1035,-0.0946,-0.0853,-0.0817,-0.0597,-0.037,-0.0137,0.0143,0.0287,0.0602,0.0564,0.0549,0.058,0.0827,0.0869,0.1115,0.1226,0.0698,0.07,0.0701,0,-0.102,-0.1055,-0.1105,-0.1138,-0.1152,-0.1171,-0.1172,-0.11,-0.1064,-0.0889,-0.0843,-0.0616,-0.0415,-0.0018,0.0273,0.055,0.0682,0.0732,0.0753,0.0868,0.094,0.0967,0.1045,0.0832,0.0835,0.0836,0.0838,0,-0.1075,-0.1094,-0.1136,-0.1213,-0.1244,-0.1264,-0.1262,-0.1242,-0.1128,-0.1033,-0.0848,-0.0678,-0.0283,0.0093,0.0439,0.061,0.0862,0.0777,0.0938,0.1107,0.1115,0.1227,0.0702,0.0854,0.0853,0.0851,0.0851,0.085,-0.1104,-0.1153,-0.1212,-0.1277,-0.1316,-0.1336,-0.133,-0.128,-0.1199,-0.1009,-0.0855,-0.0558,-0.0047,0.0473,0.0663,0.1058,0.1016,0.1183,0.1229,0.1249,0.1365,0.0844,0.1011,0.1011,0.101,0.1009,0.1009,0,-0.1136,-0.1194,-0.1267,-0.1338,-0.1379,-0.1385,-0.1364,-0.1309,-0.119,-0.098,-0.0769,-0.0185,0.0301,0.0743,0.1285,0.1501,0.1566,0.1605,0.1681,0.1745,0.1335,0.1352,0.1553,0.1552,0.1552,0.1552,0.1552,0.1552,-0.1156,-0.1235,-0.128,-0.1366,-0.1407,-0.1411,-0.1384,-0.127,-0.111,-0.0737,-0.0393,-0.0116,0.0502,0.1366,0.1863,0.1912,0.2117,0.209,0.2196,0.1924,0.1888,0.1855,0.1888,0.2197,0.2197,0.2617,0.2621,0.2624]}],[{"header":{"parameterUnit":"m.s-1","parameterCategory":2,"la1":30.2991,"la2":30.254,"lo1":-89.0895,"lo2":-89.0444,"dy":0.0017,"dx":0.0017,"nx":28,"ny":28,"refTime":"2024-02-05T09:00:00:Z","depth":"2","parameterNumber":2,"parameterNumberName":"U-component_of_CURRENTS"},"data":[0,0,0,0,0,0,0,0,0,0,0,0,0,0,0,0,0,0,0,0,0,0,0,0,0,0,0,0,0,0,0,0,0,0,0,0,0,0,0,0,0,0,0,0,0,0,0,0,0,0,0,0,0,0,0,0,0,0,-0.2273,-0.2274,0,-0.2309,-0.2309,-0.2309,-0.2285,-0.2284,-0.2283,-0.2283,-0.2283,-0.2284,-0.2285,0,0,0,0,0,0,0,0,0,0,0,0,0,-0.2217,-0.2218,-0.2273,-0.2274,-0.2274,-0.2309,-0.2309,-0.2309,-0.2286,-0.2284,-0.2283,-0.2282,-0.2283,-0.2284,-0.2285,0,0,0,0,0,0,0,0,0,0,0,0,0,-0.2245,-0.2218,-0.2273,-0.2267,-0.2267,-0.2309,-0.2309,-0.231,-0.2286,-0.2284,-0.2283,-0.2282,-0.2282,-0.2284,-0.2285,-0.2324,0,0,-0.229,-0.229,0,0,0,0,0,0,0,0,-0.2243,-0.2247,-0.2268,-0.2268,-0.2268,-0.2292,-0.2289,-0.2313,-0.2286,-0.2278,-0.2283,-0.2281,-0.2285,-0.2286,-0.2295,-0.2324,-0.2324,-0.229,-0.2291,-0.2291,-0.2292,0,0,0,0,0,0,0,-0.2241,-0.2245,-0.2286,-0.2268,-0.2269,-0.2274,-0.2276,-0.2294,-0.2288,-0.2278,-0.2277,-0.2283,-0.2284,-0.2294,-0.2295,-0.2324,-0.229,-0.2291,-0.2292,-0.2292,-0.2353,-0.2354,0,0,0,0,0,0,-0.2239,-0.2243,-0.2285,-0.2287,-0.2253,-0.2276,-0.2278,-0.2285,-0.2288,-0.2288,-0.2284,-0.2282,-0.2292,-0.2293,-0.2295,-0.2324,-0.2291,-0.2293,-0.2293,-0.2352,-0.2353,-0.2354,0,0,0,0,0,0,-0.2238,-0.2243,-0.2284,-0.2267,-0.2272,-0.2279,-0.2286,-0.2286,-0.2292,-0.2293,-0.2292,-0.2289,-0.2291,-0.2293,-0.2313,-0.2324,-0.2293,-0.2294,-0.2352,-0.2353,-0.2354,-0.2394,0,0,0,0,0,0,-0.2236,-0.2242,-0.2245,-0.2267,-0.2273,-0.2308,-0.2288,-0.2288,-0.2298,-0.2295,-0.2297,-0.2296,-0.229,-0.2311,-0.2314,-0.2326,-0.2296,-0.2351,-0.2352,-0.2353,-0.2392,-0.2396,-0.24,0,0,0,0,0,-0.2234,-0.2243,-0.2245,-0.225,-0.2278,-0.2309,-0.2313,-0.2311,-0.23,-0.2309,-0.2311,-0.2295,-0.2321,-0.2313,-0.2317,-0.2329,-0.235,-0.2352,-0.2353,-0.239,-0.2395,-0.24,0,0,0,0,0,0,-0.2217,-0.2243,-0.2244,-0.2259,-0.2283,-0.2305,-0.2311,-0.2317,-0.2327,-0.2319,-0.2316,-0.2316,-0.2335,-0.2331,-0.2322,-0.235,-0.233,-0.2332,-0.2356,-0.2361,-0.2366,-0.2351,-0.2297,0,0,0,0,0,-0.2217,-0.2228,-0.2258,-0.2268,-0.228,-0.2298,-0.2309,-0.2314,-0.2328,-0.233,-0.2336,-0.2338,-0.2349,-0.2353,-0.2362,-0.2386,-0.2355,-0.2393,-0.2397,-0.2401,-0.2392,-0.2367,-0.2368,-0.236,-0.236,-0.236,0,0,-0.2213,-0.2228,-0.2234,-0.2265,-0.2279,-0.2308,-0.23,-0.2321,-0.2342,-0.2331,-0.2355,-0.2358,-0.236,-0.2382,-0.2389,-0.2377,-0.2386,-0.2403,-0.2406,-0.2395,-0.2369,-0.237,-0.237,-0.2361,-0.2361,-0.2361,0,0,-0.2218,-0.2225,-0.224,-0.2264,-0.2293,-0.231,-0.2319,-0.2349,-0.2355,-0.2392,-0.238,-0.2388,-0.2418,-0.2411,-0.2414,-0.2449,-0.2412,-0.2455,-0.2465,-0.2442,-0.2442,-0.2442,-0.2396,-0.2392,-0.2454,-0.2454,-0.2455,0,-0.2212,-0.2233,-0.225,-0.2277,-0.2293,-0.2313,-0.234,-0.2361,-0.2395,-0.2399,-0.2401,-0.2423,-0.2428,-0.2436,-0.245,-0.2458,-0.2431,-0.2447,-0.2447,-0.2446,-0.2445,-0.2398,-0.2392,-0.2457,-0.2456,-0.2456,-0.2456,0,-0.2233,-0.2251,-0.2262,-0.23,-0.2327,-0.2348,-0.2386,-0.2406,-0.242,-0.2437,-0.2452,-0.246,-0.2464,-0.2474,-0.2479,-0.2476,-0.2454,-0.2457,-0.2431,-0.2448,-0.2398,-0.2391,-0.246,-0.2459,-0.2458,-0.2458,0,0,-0.221,-0.2266,-0.2268,-0.2284,-0.2336,-0.2357,-0.2397,-0.243,-0.244,-0.247,-0.2477,-0.2502,-0.2493,-0.2494,-0.2492,-0.2479,-0.2457,-0.247,-0.2468,-0.2419,-0.2388,-0.2297,-0.228,-0.2462,-0.2461,-0.246,-0.2353,0,-0.2215,-0.2256,-0.2291,-0.2328,-0.2348,-0.2384,-0.2418,-0.245,-0.2474,-0.2488,-0.2488,-0.2499,-0.2505,-0.2504,-0.2494,-0.2473,-0.2442,-0.2484,-0.2383,-0.2379,-0.2292,-0.2271,-0.2136,-0.2022,-0.2346,-0.2345,-0.2344,0,-0.2214,-0.2243,-0.228,-0.2327,-0.234,-0.2371,-0.2406,-0.2442,-0.2472,-0.2487,-0.2493,-0.2497,-0.2489,-0.2491,-0.2439,-0.2468,-0.2426,-0.2401,-0.2396,-0.2289,-0.2275,-0.206,-0.1997,-0.2332,-0.2333,-0.2334,-0.2335,0,-0.2163,-0.2225,-0.2247,-0.2267,-0.2335,-0.2352,-0.2386,-0.2429,-0.2447,-0.2476,-0.248,-0.248,-0.2466,-0.2434,-0.2392,-0.2417,-0.2317,-0.2342,-0.2208,-0.2201,-0.2052,-0.2032,-0.228,-0.228,-0.2281,-0.2281,-0.2281,0,-0.2139,-0.2153,-0.2223,-0.2235,-0.2255,-0.2319,-0.2338,-0.2375,-0.2414,-0.2415,-0.2463,-0.2448,-0.2454,-0.2406,-0.2373,-0.2254,-0.2293,-0.2188,-0.2163,-0.2062,-0.2045,-0.2293,-0.2296,-0.2277,-0.2278,-0.2279,-0.2279,0,-0.2069,-0.2119,-0.2141,-0.221,-0.2229,-0.224,-0.2302,-0.2309,-0.2366,-0.2366,-0.2373,-0.2409,-0.2349,-0.232,-0.2253,-0.2204,-0.2121,-0.2063,-0.1932,-0.1892,-0.2026,-0.2032,-0.1908,-0.1904,-0.19,-0.1897,-0.1895,0,-0.2034,-0.204,-0.21,-0.2107,-0.2135,-0.2168,-0.2181,-0.2261,-0.2272,-0.2324,-0.2306,-0.2283,-0.2223,-0.2095,-0.2008,-0.1892,-0.1986,-0.1709,-0.1734,-0.1997,-0.1985,-0.1998,-0.2009,-0.155,-0.1545,-0.1541,-0.1537,0,-0.1959,-0.1978,-0.1997,-0.201,-0.2026,-0.2049,-0.2081,-0.2084,-0.2161,-0.2164,-0.2143,-0.2107,-0.2,-0.1828,-0.1702,-0.1631,-0.1727,-0.1619,-0.1907,-0.1673,-0.1653,-0.1645,-0.1668,-0.15,-0.1504,-0.1506,-0.1509,-0.151,-0.1883,-0.1871,-0.1888,-0.189,-0.191,-0.1906,-0.187,-0.191,-0.1901,-0.1864,-0.1928,-0.1813,-0.1779,-0.1506,-0.1398,-0.132,-0.1444,-0.1397,-0.1413,-0.1432,-0.1418,-0.1393,-0.1188,-0.1189,-0.1191,-0.1192,-0.1194,0,-0.1774,-0.177,-0.1766,-0.1756,-0.1719,-0.1779,-0.1775,-0.1708,-0.1637,-0.1637,-0.1584,-0.1391,-0.1264,-0.1233,-0.1048,-0.1001,-0.1021,-0.0966,-0.101,-0.1046,-0.1079,-0.1051,-0.0721,-0.0719,-0.0718,-0.0717,0,0,-0.1712,-0.1663,-0.1661,-0.1563,-0.1553,-0.1456,-0.1421,-0.1348,-0.1314,-0.12,-0.1139,-0.1194,-0.1204,-0.0972,-0.0907,-0.0788,-0.0913,-0.0743,-0.1124,-0.1213,-0.1244,-0.1324,-0.132,0,0,0,0,0]},{"header":{"parameterUnit":"m.s-1","parameterCategory":2,"la1":30.2991,"la2":30.254,"lo1":-89.0895,"lo2":-89.0444,"dy":0.0017,"dx":0.0017,"nx":28,"ny":28,"refTime":"2024-02-05T09:00:00:Z","depth":"2","parameterNumber":3,"parameterNumberName":"V-component_of_CURRENTS"},"data":[0,0,0,0,0,0,0,0,0,0,0,0,0,0,0,0,0,0,0,0,0,0,0,0,0,0,0,0,0,0,0,0,0,0,0,0,0,0,0,0,0,0,0,0,0,0,0,0,0,0,0,0,0,0,0,0,0,0,-0.0401,-0.04,0,-0.0327,-0.0326,-0.0325,-0.0268,-0.0268,-0.0268,-0.0267,-0.014,-0.0137,-0.0134,0,0,0,0,0,0,0,0,0,0,0,0,0,-0.0435,-0.0435,-0.0401,-0.04,-0.0399,-0.0327,-0.0326,-0.0324,-0.0268,-0.0268,-0.0267,-0.0267,-0.0141,-0.0137,-0.0134,0,0,0,0,0,0,0,0,0,0,0,0,0,-0.0395,-0.0435,-0.0401,-0.0364,-0.036,-0.0327,-0.0325,-0.0324,-0.0268,-0.0268,-0.0267,-0.0267,-0.0142,-0.0138,-0.0133,-0.0116,0,0,-0.0119,-0.0117,0,0,0,0,0,0,0,0,-0.0398,-0.0394,-0.037,-0.0366,-0.0362,-0.0308,-0.0291,-0.0252,-0.0269,-0.0301,-0.0267,-0.0267,-0.0193,-0.0184,-0.0169,-0.011,-0.0104,-0.0119,-0.0116,-0.0114,-0.0113,0,0,0,0,0,0,0,-0.04,-0.0396,-0.037,-0.0369,-0.0364,-0.0331,-0.0325,-0.0283,-0.0249,-0.0299,-0.0295,-0.0289,-0.019,-0.0174,-0.0166,-0.0102,-0.0119,-0.0115,-0.0112,-0.011,-0.0012,-0.0012,0,0,0,0,0,0,-0.0417,-0.0399,-0.0372,-0.0368,-0.0381,-0.0331,-0.0324,-0.0324,-0.025,-0.0239,-0.029,-0.0287,-0.0182,-0.0171,-0.0161,-0.0131,-0.0114,-0.011,-0.0107,-0.0012,-0.0012,-0.0012,0,0,0,0,0,0,-0.0418,-0.0415,-0.0375,-0.0383,-0.0375,-0.0332,-0.0332,-0.0323,-0.0309,-0.0244,-0.0232,-0.0285,-0.0181,-0.0167,-0.0128,-0.0126,-0.0108,-0.0103,-0.0012,-0.0012,-0.0012,-0.0073,0,0,0,0,0,0,-0.0419,-0.0416,-0.0423,-0.0384,-0.0376,-0.0363,-0.0332,-0.0322,-0.0307,-0.0302,-0.0236,-0.0223,-0.018,-0.0136,-0.0124,-0.0119,-0.01,-0.0011,-0.0012,-0.0012,-0.0071,-0.0076,-0.0079,0,0,0,0,0,-0.0421,-0.0433,-0.0423,-0.042,-0.0386,-0.0364,-0.0356,-0.0321,-0.0308,-0.0305,-0.0261,-0.0225,-0.0129,-0.0132,-0.0118,-0.0112,-0.0011,-0.0012,-0.0012,-0.0069,-0.0075,-0.0079,0,0,0,0,0,0,-0.0448,-0.0427,-0.0416,-0.0421,-0.0398,-0.0355,-0.0351,-0.0329,-0.0292,-0.0288,-0.0227,-0.0211,-0.0176,-0.0139,-0.0144,-0.0085,-0.0064,-0.0062,-0.0112,-0.0117,-0.0121,-0.0133,-0.0096,0,0,0,0,0,-0.0459,-0.0465,-0.0435,-0.0439,-0.0432,-0.0394,-0.0381,-0.036,-0.0323,-0.0307,-0.0261,-0.0211,-0.0167,-0.0139,-0.0098,-0.0065,-0.0016,-0.0052,-0.0056,-0.006,-0.0061,0.0016,0.0019,-0.0013,-0.0013,-0.0013,0,0,-0.0469,-0.0461,-0.0462,-0.0446,-0.0425,-0.0422,-0.0384,-0.0373,-0.0365,-0.0299,-0.0274,-0.0226,-0.0163,-0.0127,-0.0108,-0.0094,-0.0027,-0.006,-0.0064,-0.0062,0.0016,0.0019,0.0022,-0.0013,-0.0013,-0.0013,0,0,-0.0498,-0.0487,-0.0502,-0.0491,-0.0472,-0.0447,-0.0449,-0.0411,-0.0389,-0.0364,-0.0311,-0.0262,-0.0204,-0.0149,-0.0117,-0.0118,-0.0056,-0.0108,-0.0131,-0.0057,-0.0054,-0.005,0.0007,0.0017,-0.0105,-0.0105,-0.0105,0,-0.0511,-0.0526,-0.0502,-0.0515,-0.0509,-0.0464,-0.0476,-0.0448,-0.0402,-0.0378,-0.0368,-0.0262,-0.0212,-0.0148,-0.0151,-0.0126,-0.0081,-0.0118,-0.0062,-0.0057,-0.0052,0.0006,0.0017,-0.0108,-0.0108,-0.0108,-0.0107,0,-0.0552,-0.0562,-0.057,-0.0572,-0.0562,-0.0564,-0.0529,-0.051,-0.048,-0.0441,-0.0382,-0.031,-0.0242,-0.022,-0.0187,-0.0125,-0.0105,-0.0081,-0.0051,-0.0053,0.0008,0.0021,-0.0113,-0.0112,-0.0111,-0.011,0,0,-0.0584,-0.0598,-0.06,-0.0613,-0.0594,-0.0592,-0.0577,-0.0542,-0.0522,-0.047,-0.0429,-0.0353,-0.0302,-0.0261,-0.0201,-0.0139,-0.0071,-0.0104,-0.0098,-0.005,0.0084,0.0099,0.0115,-0.0036,-0.0034,-0.0032,0.011,0,-0.0621,-0.0666,-0.0654,-0.0681,-0.0698,-0.0656,-0.0645,-0.0606,-0.0556,-0.0504,-0.0416,-0.036,-0.0319,-0.0283,-0.0214,-0.0101,-0.0039,-0.0112,0.0081,0.0087,0.0099,0.013,0.0095,0.0219,0.0122,0.0125,0.0126,0,-0.0663,-0.0689,-0.0731,-0.0739,-0.074,-0.0746,-0.0711,-0.0692,-0.0605,-0.0563,-0.0482,-0.0408,-0.0302,-0.0276,-0.0084,-0.0133,-0.0036,0.0045,0.0054,0.0099,0.0127,0.0208,0.0246,0.0148,0.0146,0.0145,0.0143,0,-0.0707,-0.0737,-0.0774,-0.0781,-0.0782,-0.0786,-0.0776,-0.0711,-0.0685,-0.0593,-0.0556,-0.0422,-0.0345,-0.0208,-0.0044,-0.0057,0.0163,0.0173,0.0278,0.028,0.0304,0.0305,0.0301,0.0301,0.0301,0.03,0.03,0,-0.0753,-0.0781,-0.0802,-0.0828,-0.0861,-0.0839,-0.0841,-0.0806,-0.0738,-0.0694,-0.0589,-0.0517,-0.0324,-0.0177,-0.0041,0.0163,0.0175,0.0284,0.0325,0.028,0.0277,0.0258,0.0251,0.0305,0.0304,0.0303,0.0302,0,-0.0794,-0.0808,-0.0856,-0.0879,-0.0889,-0.0913,-0.0904,-0.0891,-0.0824,-0.0762,-0.0735,-0.0566,-0.0369,-0.0181,0.0063,0.0174,0.0357,0.0419,0.0343,0.0373,0.0421,0.0409,0.056,0.0562,0.0563,0.0565,0.0566,0,-0.0818,-0.085,-0.0904,-0.0937,-0.0954,-0.098,-0.099,-0.0944,-0.092,-0.0784,-0.0752,-0.0558,-0.04,-0.005,0.0176,0.0424,0.0418,0.0524,0.0494,0.0427,0.0452,0.0437,0.0424,0.0504,0.0504,0.0505,0.0505,0,-0.0864,-0.0883,-0.0925,-0.0996,-0.1032,-0.1058,-0.1067,-0.1057,-0.0975,-0.09,-0.075,-0.0612,-0.0285,-0.0005,0.0294,0.0427,0.048,0.054,0.0525,0.0431,0.0382,0.0403,0.0391,0.0509,0.0509,0.0508,0.0508,0.0508,-0.0889,-0.0931,-0.0987,-0.1048,-0.1091,-0.1117,-0.1117,-0.1085,-0.1027,-0.0876,-0.0755,-0.0518,-0.0267,0.0174,0.0378,0.0556,0.0553,0.0598,0.0594,0.059,0.0545,0.0501,0.0641,0.0641,0.0642,0.0642,0.0642,0,-0.0914,-0.0965,-0.1031,-0.1099,-0.1141,-0.1153,-0.1146,-0.11,-0.1007,-0.085,-0.068,-0.0378,-0.0084,0.017,0.046,0.063,0.0605,0.0649,0.0585,0.058,0.0576,0.0527,0.0621,0.0622,0.0622,0.0623,0,0,-0.093,-0.0998,-0.1036,-0.1116,-0.1158,-0.1168,-0.1151,-0.1054,-0.0928,-0.0738,-0.0562,-0.0351,-0.0052,0.0152,0.0357,0.0504,0.0496,0.051,0.0508,0.0402,0.0397,0.0527,0.0445,0,0,0,0,0]}],[{"header":{"parameterUnit":"m.s-1","parameterCategory":2,"la1":30.2991,"la2":30.254,"lo1":-89.0895,"lo2":-89.0444,"dy":0.0017,"dx":0.0017,"nx":28,"ny":28,"refTime":"2024-02-05T09:00:00:Z","depth":"4","parameterNumber":2,"parameterNumberName":"U-component_of_CURRENTS"},"data":[0,0,0,0,0,0,0,0,0,0,0,0,0,0,0,0,0,0,0,0,0,0,0,0,0,0,0,0,0,0,0,0,0,0,0,0,0,0,0,0,0,0,0,0,0,0,0,0,0,0,0,0,0,0,0,0,0,0,-0.1577,-0.1577,0,-0.1636,-0.1637,-0.1637,-0.1669,-0.1669,-0.1669,-0.167,-0.1711,-0.1712,-0.1713,0,0,0,0,0,0,0,0,0,0,0,0,0,-0.1504,-0.1505,-0.1577,-0.1577,-0.1578,-0.1636,-0.1637,-0.1638,-0.1669,-0.1669,-0.1669,-0.167,-0.1711,-0.1712,-0.1713,0,0,0,0,0,0,0,0,0,0,0,0,0,-0.1546,-0.1505,-0.1576,-0.1602,-0.1605,-0.1636,-0.1637,-0.1638,-0.1669,-0.1669,-0.1669,-0.167,-0.171,-0.1712,-0.1713,-0.1718,0,0,-0.1718,-0.1718,0,0,0,0,0,0,0,0,-0.1543,-0.1548,-0.1597,-0.16,-0.1603,-0.1646,-0.1627,-0.1664,-0.1669,-0.1644,-0.167,-0.167,-0.1688,-0.1692,-0.1701,-0.172,-0.1722,-0.1718,-0.1719,-0.1719,-0.172,0,0,0,0,0,0,0,-0.154,-0.1546,-0.1599,-0.1598,-0.1602,-0.1615,-0.1621,-0.1634,-0.1663,-0.1646,-0.1648,-0.1657,-0.169,-0.17,-0.1702,-0.1722,-0.1718,-0.1719,-0.172,-0.1721,-0.1779,-0.1779,0,0,0,0,0,0,-0.1534,-0.1543,-0.1597,-0.1601,-0.1574,-0.1616,-0.1623,-0.1632,-0.1663,-0.1669,-0.1656,-0.1658,-0.1697,-0.1701,-0.1704,-0.1756,-0.1719,-0.1721,-0.1722,-0.1778,-0.1779,-0.178,0,0,0,0,0,0,-0.1532,-0.1538,-0.1595,-0.1574,-0.1582,-0.1617,-0.1627,-0.1633,-0.1667,-0.1672,-0.1677,-0.1688,-0.1697,-0.1702,-0.1738,-0.1756,-0.1721,-0.1723,-0.1777,-0.1778,-0.1779,-0.1831,0,0,0,0,0,0,-0.153,-0.1537,-0.1555,-0.1574,-0.1583,-0.1628,-0.1627,-0.1634,-0.1671,-0.1674,-0.17,-0.1702,-0.1698,-0.1736,-0.1739,-0.1757,-0.1724,-0.1776,-0.1778,-0.1779,-0.1828,-0.1833,-0.1838,0,0,0,0,0,-0.1527,-0.1544,-0.1555,-0.1563,-0.1602,-0.163,-0.1636,-0.166,-0.1672,-0.1692,-0.1711,-0.1703,-0.1745,-0.1738,-0.1742,-0.1761,-0.1776,-0.1777,-0.1779,-0.1826,-0.1832,-0.1838,0,0,0,0,0,0,-0.1522,-0.155,-0.1562,-0.1588,-0.1615,-0.1636,-0.1659,-0.1676,-0.1708,-0.1718,-0.1721,-0.1725,-0.1759,-0.1754,-0.1746,-0.1779,-0.1756,-0.1758,-0.179,-0.1796,-0.1801,-0.1785,-0.1725,0,0,0,0,0,-0.1529,-0.155,-0.1577,-0.16,-0.1615,-0.1644,-0.1664,-0.1682,-0.1706,-0.1722,-0.1742,-0.1756,-0.1764,-0.1778,-0.1785,-0.1813,-0.1788,-0.1823,-0.1828,-0.1832,-0.1822,-0.1807,-0.181,-0.1785,-0.1785,-0.1785,0,0,-0.1536,-0.1552,-0.1567,-0.1601,-0.1624,-0.1652,-0.1657,-0.1694,-0.1721,-0.172,-0.1771,-0.1779,-0.1775,-0.1802,-0.1815,-0.1804,-0.1828,-0.1834,-0.1838,-0.1824,-0.1809,-0.1811,-0.1813,-0.1786,-0.1785,-0.1785,0,0,-0.1548,-0.1574,-0.1594,-0.1619,-0.1659,-0.1676,-0.1693,-0.1732,-0.1755,-0.1802,-0.1799,-0.1818,-0.1852,-0.1843,-0.1842,-0.1877,-0.1853,-0.1886,-0.1903,-0.189,-0.1892,-0.1893,-0.187,-0.1868,-0.189,-0.189,-0.189,0,-0.1558,-0.1581,-0.1606,-0.1632,-0.1654,-0.1689,-0.1717,-0.1745,-0.1795,-0.1807,-0.1826,-0.1855,-0.1863,-0.1865,-0.1881,-0.1887,-0.1875,-0.1884,-0.1896,-0.1896,-0.1897,-0.1872,-0.187,-0.1893,-0.1892,-0.1892,-0.1892,0,-0.1577,-0.1608,-0.1623,-0.1664,-0.1694,-0.1724,-0.1762,-0.1799,-0.1835,-0.1855,-0.1885,-0.1897,-0.1906,-0.1916,-0.1916,-0.192,-0.1908,-0.1904,-0.1881,-0.1902,-0.1876,-0.1872,-0.1896,-0.1895,-0.1895,-0.1894,0,0,-0.1561,-0.1624,-0.1632,-0.1654,-0.1713,-0.1734,-0.1782,-0.1818,-0.184,-0.189,-0.1908,-0.1932,-0.1937,-0.1934,-0.1933,-0.1929,-0.1932,-0.1927,-0.1925,-0.1903,-0.1901,-0.1772,-0.1756,-0.1938,-0.1938,-0.1937,-0.1883,0,-0.1568,-0.1612,-0.1647,-0.1695,-0.1717,-0.1763,-0.18,-0.1841,-0.1876,-0.1907,-0.1915,-0.1938,-0.1943,-0.1955,-0.1952,-0.1939,-0.1926,-0.1947,-0.1883,-0.1881,-0.1762,-0.1748,-0.1936,-0.1881,-0.188,-0.1879,-0.1879,0,-0.1562,-0.1594,-0.1641,-0.1697,-0.1713,-0.1753,-0.1804,-0.1842,-0.1884,-0.1911,-0.193,-0.1943,-0.1948,-0.1954,-0.1928,-0.1946,-0.1925,-0.191,-0.1907,-0.1761,-0.1744,-0.1853,-0.1872,-0.1873,-0.1873,-0.1874,-0.1874,0,-0.1511,-0.1581,-0.1617,-0.164,-0.1716,-0.1748,-0.179,-0.1842,-0.1865,-0.1913,-0.1927,-0.194,-0.1945,-0.1931,-0.1908,-0.1927,-0.1866,-0.1884,-0.1738,-0.1729,-0.1842,-0.1841,-0.1848,-0.1848,-0.1848,-0.1848,-0.1848,0,-0.1477,-0.1508,-0.1602,-0.162,-0.1659,-0.1727,-0.1766,-0.1808,-0.1858,-0.1863,-0.1923,-0.191,-0.1943,-0.1916,-0.1899,-0.1791,-0.1853,-0.172,-0.1697,-0.1866,-0.1869,-0.184,-0.184,-0.1846,-0.1846,-0.1847,-0.1847,0,-0.1405,-0.1471,-0.1513,-0.1605,-0.1635,-0.1664,-0.1746,-0.1758,-0.1828,-0.1834,-0.1849,-0.1888,-0.1849,-0.1847,-0.1812,-0.1753,-0.1685,-0.163,-0.1795,-0.1787,-0.1564,-0.1568,-0.1463,-0.1458,-0.1454,-0.145,-0.1447,0,-0.1367,-0.1386,-0.1486,-0.151,-0.1556,-0.1614,-0.1639,-0.1726,-0.1734,-0.1791,-0.177,-0.1772,-0.1775,-0.1608,-0.1639,-0.1567,-0.155,-0.151,-0.1546,-0.1531,-0.1521,-0.1531,-0.1541,-0.144,-0.1439,-0.1438,-0.1436,0,-0.1289,-0.134,-0.1375,-0.1422,-0.1463,-0.1496,-0.1544,-0.1535,-0.1613,-0.1693,-0.1631,-0.1597,-0.154,-0.1508,-0.1449,-0.1409,-0.1539,-0.1464,-0.1474,-0.1508,-0.1501,-0.1498,-0.1512,-0.1421,-0.1423,-0.1425,-0.1426,0,-0.1228,-0.123,-0.1283,-0.1309,-0.1358,-0.1352,-0.1396,-0.1395,-0.1414,-0.1487,-0.146,-0.1465,-0.1513,-0.1422,-0.1374,-0.1315,-0.1305,-0.1273,-0.1293,-0.131,-0.1284,-0.1256,-0.1058,0,0,0,0,0,-0.1156,-0.1143,-0.1161,-0.1177,-0.122,-0.1246,-0.1314,-0.1361,-0.1436,-0.1346,-0.1399,-0.134,-0.1269,-0.1283,-0.1186,-0.1308,-0.1314,-0.1191,-0.1289,-0.1336,-0.1354,-0.1338,0,0,0,0,0,0,-0.1104,-0.1119,-0.1117,-0.106,-0.1046,-0.1071,-0.1109,-0.1167,-0.1131,-0.1217,-0.1181,-0.1252,-0.12,-0.1287,-0.1153,-0.1155,-0.1187,-0.121,-0.1206,-0.1326,-0.1342,-0.1356,-0.1346,0,0,0,0,0]},{"header":{"parameterUnit":"m.s-1","parameterCategory":2,"la1":30.2991,"la2":30.254,"lo1":-89.0895,"lo2":-89.0444,"dy":0.0017,"dx":0.0017,"nx":28,"ny":28,"refTime":"2024-02-05T09:00:00:Z","depth":"4","parameterNumber":3,"parameterNumberName":"V-component_of_CURRENTS"},"data":[0,0,0,0,0,0,0,0,0,0,0,0,0,0,0,0,0,0,0,0,0,0,0,0,0,0,0,0,0,0,0,0,0,0,0,0,0,0,0,0,0,0,0,0,0,0,0,0,0,0,0,0,0,0,0,0,0,0,-0.0282,-0.0282,0,-0.024,-0.0239,-0.0239,-0.0206,-0.0206,-0.0205,-0.0205,-0.0126,-0.0124,-0.0122,0,0,0,0,0,0,0,0,0,0,0,0,0,-0.0294,-0.0294,-0.0282,-0.0282,-0.0281,-0.024,-0.0239,-0.0239,-0.0206,-0.0206,-0.0205,-0.0205,-0.0127,-0.0124,-0.0122,0,0,0,0,0,0,0,0,0,0,0,0,0,-0.0273,-0.0294,-0.0282,-0.0261,-0.0259,-0.024,-0.0239,-0.0238,-0.0206,-0.0206,-0.0205,-0.0205,-0.0127,-0.0125,-0.0122,-0.011,0,0,-0.0113,-0.0112,0,0,0,0,0,0,0,0,-0.0274,-0.0273,-0.0264,-0.0262,-0.026,-0.0229,-0.0214,-0.0194,-0.0206,-0.0225,-0.0205,-0.0205,-0.0158,-0.0153,-0.0144,-0.0107,-0.0103,-0.0113,-0.0111,-0.011,-0.0109,0,0,0,0,0,0,0,-0.0276,-0.0274,-0.0264,-0.0264,-0.0261,-0.024,-0.0236,-0.021,-0.0192,-0.0223,-0.0221,-0.0218,-0.0156,-0.0147,-0.0142,-0.0102,-0.0113,-0.011,-0.0109,-0.0107,-0.0066,-0.0066,0,0,0,0,0,0,-0.0286,-0.0276,-0.0266,-0.0263,-0.0268,-0.024,-0.0236,-0.0238,-0.0193,-0.0186,-0.0218,-0.0217,-0.0152,-0.0145,-0.0139,-0.0136,-0.011,-0.0107,-0.0105,-0.0065,-0.0066,-0.0067,0,0,0,0,0,0,-0.0287,-0.0286,-0.0267,-0.0269,-0.0265,-0.024,-0.0242,-0.0237,-0.0232,-0.019,-0.0183,-0.0219,-0.0152,-0.0143,-0.0123,-0.0132,-0.0106,-0.0103,-0.0064,-0.0065,-0.0066,-0.0122,0,0,0,0,0,0,-0.0287,-0.0286,-0.0294,-0.027,-0.0266,-0.0264,-0.0243,-0.0237,-0.0232,-0.0229,-0.0188,-0.018,-0.0151,-0.0128,-0.0121,-0.0128,-0.0101,-0.0064,-0.0065,-0.0066,-0.0119,-0.0124,-0.0129,0,0,0,0,0,-0.0288,-0.0299,-0.0295,-0.0294,-0.0276,-0.0264,-0.026,-0.024,-0.0232,-0.0234,-0.0207,-0.0182,-0.013,-0.0126,-0.0117,-0.0124,-0.0063,-0.0065,-0.0066,-0.0117,-0.0123,-0.0129,0,0,0,0,0,0,-0.0306,-0.0296,-0.0291,-0.0299,-0.0287,-0.026,-0.0261,-0.0247,-0.0228,-0.0227,-0.0186,-0.0177,-0.0164,-0.0138,-0.0135,-0.0117,-0.0094,-0.0093,-0.0135,-0.0141,-0.0146,-0.015,-0.0099,0,0,0,0,0,-0.0316,-0.0324,-0.0307,-0.0314,-0.0311,-0.0288,-0.0282,-0.027,-0.0249,-0.0241,-0.0212,-0.0184,-0.0162,-0.0148,-0.0124,-0.0112,-0.0071,-0.0112,-0.0117,-0.0121,-0.0119,-0.0068,-0.0067,-0.0071,-0.0071,-0.0071,0,0,-0.0324,-0.0321,-0.0325,-0.0319,-0.0308,-0.0312,-0.0284,-0.0281,-0.0283,-0.0235,-0.0228,-0.02,-0.0164,-0.0152,-0.0144,-0.0131,-0.0099,-0.0123,-0.0127,-0.0122,-0.0069,-0.0068,-0.0068,-0.0072,-0.0072,-0.0072,0,0,-0.0347,-0.0344,-0.0359,-0.0355,-0.0348,-0.0334,-0.0337,-0.0316,-0.0306,-0.0297,-0.0264,-0.0242,-0.021,-0.0182,-0.0165,-0.0183,-0.0129,-0.0179,-0.0202,-0.0153,-0.0152,-0.0151,-0.0098,-0.0092,-0.0179,-0.0179,-0.0179,0,-0.0358,-0.0374,-0.036,-0.0373,-0.0376,-0.0349,-0.0363,-0.035,-0.0324,-0.0314,-0.0305,-0.0253,-0.0225,-0.0199,-0.0207,-0.0193,-0.0153,-0.0183,-0.0159,-0.0156,-0.0154,-0.01,-0.0092,-0.0182,-0.0182,-0.0181,-0.0181,0,-0.039,-0.0404,-0.0412,-0.0423,-0.0422,-0.043,-0.0413,-0.0407,-0.0393,-0.0373,-0.0348,-0.0306,-0.0271,-0.0263,-0.0241,-0.0213,-0.0186,-0.0172,-0.0143,-0.0157,-0.01,-0.009,-0.0186,-0.0185,-0.0184,-0.0183,0,0,-0.041,-0.0432,-0.0435,-0.0452,-0.0451,-0.0455,-0.0458,-0.0447,-0.0442,-0.0415,-0.0399,-0.0365,-0.0332,-0.031,-0.0273,-0.0233,-0.0186,-0.02,-0.0196,-0.0146,-0.0069,-0.0075,-0.0065,-0.0164,-0.0162,-0.0162,-0.0036,0,-0.0439,-0.048,-0.0479,-0.0514,-0.0531,-0.0514,-0.0517,-0.0504,-0.0479,-0.0454,-0.0406,-0.0379,-0.0352,-0.0333,-0.029,-0.0207,-0.0163,-0.022,-0.0064,-0.0059,-0.0062,-0.0056,-0.0158,-0.0028,-0.0026,-0.0024,-0.0023,0,-0.0468,-0.0494,-0.0537,-0.0562,-0.0567,-0.0584,-0.0581,-0.0579,-0.0535,-0.0512,-0.0469,-0.0421,-0.0357,-0.0337,-0.0202,-0.0237,-0.0161,-0.0099,-0.0092,-0.0072,-0.0049,-0.001,-0.0006,-0.0007,-0.0008,-0.0009,-0.0011,0,-0.0493,-0.0532,-0.0571,-0.0582,-0.0604,-0.062,-0.0626,-0.06,-0.0592,-0.0543,-0.0521,-0.0439,-0.0389,-0.0289,-0.0166,-0.0176,-0.0011,-0.0006,0.0061,0.0062,0.0056,0.0054,0.0087,0.0087,0.0086,0.0086,0.0086,0,-0.052,-0.0553,-0.0592,-0.0617,-0.066,-0.0659,-0.0682,-0.067,-0.0639,-0.0619,-0.0553,-0.0506,-0.0374,-0.0264,-0.0161,-0.0018,-0.0002,0.0063,0.0094,0.0029,0.0022,0.0064,0.0059,0.0091,0.009,0.0089,0.0088,0,-0.0537,-0.0563,-0.0614,-0.0658,-0.0677,-0.0708,-0.0732,-0.0734,-0.0702,-0.067,-0.0653,-0.054,-0.0397,-0.0261,-0.008,-0.001,0.0124,0.0169,0.0097,0.012,0.0166,0.0157,0.0261,0.0262,0.0262,0.0263,0.0263,0,-0.0546,-0.0577,-0.0651,-0.0688,-0.0715,-0.0758,-0.078,-0.0771,-0.0761,-0.0683,-0.0659,-0.0525,-0.0436,-0.0176,-0.0049,0.0151,0.0168,0.0236,0.0189,0.0164,0.0184,0.0174,0.0165,0.0264,0.0264,0.0265,0.0265,0,-0.0564,-0.0597,-0.064,-0.0717,-0.0764,-0.0804,-0.0831,-0.0826,-0.079,-0.0765,-0.0637,-0.0503,-0.0341,-0.0162,-0.0009,0.0127,0.0189,0.0243,0.0242,0.0199,0.017,0.0187,0.0176,0.0267,0.0267,0.0267,0.0267,0,-0.0575,-0.0611,-0.0672,-0.0733,-0.0796,-0.0826,-0.0841,-0.0811,-0.0792,-0.0699,-0.0653,-0.048,-0.0377,-0.0172,-0.0031,0.01,0.0124,0.0155,0.0159,0.0158,0.0076,0.002,0.0105,0,0,0,0,0,-0.0576,-0.0617,-0.068,-0.0747,-0.0806,-0.0834,-0.0859,-0.0857,-0.0822,-0.0731,-0.0687,-0.0532,-0.0302,-0.0201,-0.0068,-0.0042,0.0125,0.0114,0.0158,0.028,0.0278,0.0196,0,0,0,0,0,0,-0.0579,-0.0641,-0.0675,-0.0739,-0.0778,-0.083,-0.0843,-0.0822,-0.0762,-0.071,-0.0582,-0.0509,-0.0287,-0.0371,-0.0065,-0.0027,0.0016,0.0222,0.0225,0.0282,0.0279,0.0277,0.0192,0,0,0,0,0]}]]